RYR363C LEMI-EGHH

Flight info

Callsign RYR363C
Flight time 2h 9m
Altitude 36000
Route ALT N851 MITOS N608 COMPI Y90 USKAR DCT MOPAS DCT GIROM DCT AGN DCT SECHE DCT UVELI DCT CNA DCT MANAK UY110 ORIST Y110 THRED
Aircraft B738/M-SDE2E3FGHIRWXY/LB1

Departure

Time 2026-04-23 18:59
Airport Region of Murcia International Airport (LEMI)

Arrival

Time 2026-04-23 21:09
Airport Bournemouth Airport (EGHH)
Time Latitude Longitude Altitude Speed Heading
2026-04-23 18:46 37.80382 -1.13088 646 ft 0 kts 315°
2026-04-23 18:52 37.80367 -1.13072 647 ft 4 kts 326°
2026-04-23 18:52 37.80356 -1.13063 646 ft 4 kts 328°
2026-04-23 18:52 37.80340 -1.13047 647 ft 4 kts 294°
2026-04-23 18:52 37.80334 -1.13025 646 ft 0 kts 270°
2026-04-23 18:53 37.80337 -1.13004 646 ft 4 kts 238°
2026-04-23 18:53 37.80352 -1.12980 646 ft 1 kts 225°
2026-04-23 18:55 37.80351 -1.12981 646 ft 1 kts 225°
2026-04-23 18:55 37.80337 -1.13003 648 ft 5 kts 229°
2026-04-23 18:55 37.80308 -1.13041 646 ft 6 kts 225°
2026-04-23 18:55 37.80275 -1.13082 646 ft 9 kts 225°
2026-04-23 18:56 37.80238 -1.13130 646 ft 13 kts 224°
2026-04-23 18:56 37.80146 -1.13119 647 ft 6 kts 137°
2026-04-23 18:56 37.80095 -1.13080 647 ft 8 kts 172°
2026-04-23 18:56 37.80044 -1.13130 647 ft 13 kts 229°
2026-04-23 18:57 37.79965 -1.13226 648 ft 19 kts 223°
2026-04-23 18:57 37.79866 -1.13358 651 ft 23 kts 226°
2026-04-23 18:57 37.79740 -1.13518 650 ft 27 kts 225°
2026-04-23 18:57 37.79612 -1.13685 646 ft 26 kts 226°
2026-04-23 18:58 37.79508 -1.13776 646 ft 14 kts 171°
2026-04-23 18:58 37.79431 -1.13702 645 ft 15 kts 133°
2026-04-23 18:58 37.79438 -1.13599 643 ft 10 kts 49°
2026-04-23 18:58 37.79479 -1.13544 643 ft 24 kts 45°
2026-04-23 18:59 37.79759 -1.13186 648 ft 89 kts 45°
2026-04-23 18:59 37.80331 -1.12449 648 ft 143 kts 45°
2026-04-23 18:59 37.81080 -1.11485 1151 ft 151 kts 46°
2026-04-23 18:59 37.81823 -1.10592 2047 ft 144 kts 45°
2026-04-23 19:00 37.82526 -1.09767 2976 ft 136 kts 48°
2026-04-23 19:00 37.83276 -1.08862 3347 ft 165 kts 49°
2026-04-23 19:00 37.84182 -1.07770 3575 ft 193 kts 48°
2026-04-23 19:00 37.85231 -1.06510 3794 ft 215 kts 47°
2026-04-23 19:01 37.86337 -1.05191 4166 ft 227 kts 46°
2026-04-23 19:01 37.87515 -1.03788 4546 ft 243 kts 46°
2026-04-23 19:01 37.88790 -1.02274 4965 ft 259 kts 47°
2026-04-23 19:01 37.90120 -1.00697 5662 ft 266 kts 45°
2026-04-23 19:02 37.91491 -0.99068 6305 ft 276 kts 45°
2026-04-23 19:02 37.92897 -0.97400 7045 ft 279 kts 48°
2026-04-23 19:02 37.94337 -0.95690 7676 ft 287 kts 44°
2026-04-23 19:02 37.95808 -0.93942 8383 ft 292 kts 45°
2026-04-23 19:03 37.97306 -0.92161 9033 ft 300 kts 46°
2026-04-23 19:03 37.98838 -0.90341 9748 ft 304 kts 44°
2026-04-23 19:03 38.00385 -0.88499 10456 ft 307 kts 44°
2026-04-23 19:03 38.01989 -0.86586 10736 ft 328 kts 44°
2026-04-23 19:04 38.03707 -0.84537 10963 ft 348 kts 44°
2026-04-23 19:04 38.05508 -0.82386 11333 ft 363 kts 44°
2026-04-23 19:04 38.07339 -0.80200 12137 ft 361 kts 44°
2026-04-23 19:04 38.09183 -0.77999 12767 ft 367 kts 44°
2026-04-23 19:05 38.11053 -0.75761 13437 ft 372 kts 43°
2026-04-23 19:05 38.12942 -0.73506 14178 ft 374 kts 43°
2026-04-23 19:05 38.14855 -0.71232 14890 ft 378 kts 43°
2026-04-23 19:05 38.16774 -0.68954 15701 ft 377 kts 43°
2026-04-23 19:06 38.18701 -0.66662 16399 ft 381 kts 42°
2026-04-23 19:06 38.20636 -0.64358 17218 ft 381 kts 43°
2026-04-23 19:06 38.22582 -0.62038 17881 ft 387 kts 42°
2026-04-23 19:06 38.24561 -0.59678 18474 ft 392 kts 42°
2026-04-23 19:07 38.26509 -0.57212 19002 ft 398 kts 51°
2026-04-23 19:07 38.27844 -0.54134 19662 ft 398 kts 68°
2026-04-23 19:07 38.28871 -0.50842 20239 ft 403 kts 69°
2026-04-23 19:07 38.29898 -0.47503 20791 ft 407 kts 69°
2026-04-23 19:08 38.30939 -0.44146 21393 ft 410 kts 69°
2026-04-23 19:08 38.32004 -0.40760 21940 ft 413 kts 68°
2026-04-23 19:08 38.33083 -0.37358 22514 ft 416 kts 68°
2026-04-23 19:08 38.34179 -0.33922 23024 ft 420 kts 68°
2026-04-23 19:09 38.35280 -0.30468 23628 ft 422 kts 68°
2026-04-23 19:09 38.36393 -0.26983 24019 ft 427 kts 68°
2026-04-23 19:09 38.37547 -0.23490 24526 ft 428 kts 67°
2026-04-23 19:09 38.38739 -0.19939 24960 ft 432 kts 67°
2026-04-23 19:10 38.39921 -0.16415 25419 ft 434 kts 67°
2026-04-23 19:10 38.41107 -0.12862 25833 ft 437 kts 67°
2026-04-23 19:10 38.42294 -0.09286 26259 ft 439 kts 67°
2026-04-23 19:10 38.43820 -0.05903 26615 ft 443 kts 49°
2026-04-23 19:11 38.46142 -0.03343 27070 ft 443 kts 30°
2026-04-23 19:11 38.48940 -0.01724 27483 ft 443 kts 14°
2026-04-23 19:11 38.51938 -0.01157 27850 ft 443 kts 360°
2026-04-23 19:11 38.55064 -0.01116 28248 ft 445 kts 358°
2026-04-23 19:12 38.57116 -0.01131 28485 ft 446 kts 358°
2026-04-23 19:12 38.61282 -0.01186 28980 ft 450 kts 357°
2026-04-23 19:12 38.64425 -0.01216 29329 ft 453 kts 358°
2026-04-23 19:12 38.67581 -0.01228 29698 ft 455 kts 357°
2026-04-23 19:13 38.70751 -0.01228 30046 ft 457 kts 359°
2026-04-23 19:13 38.73939 -0.01212 30330 ft 459 kts 359°
2026-04-23 19:13 38.77139 -0.01190 30638 ft 461 kts 358°
2026-04-23 19:13 38.80355 -0.01167 30870 ft 463 kts 359°
2026-04-23 19:14 38.83573 -0.01145 31298 ft 461 kts 357°
2026-04-23 19:14 38.86782 -0.01119 31651 ft 461 kts 359°
2026-04-23 19:14 38.89989 -0.01096 32066 ft 459 kts 359°
2026-04-23 19:14 38.93165 -0.01074 32652 ft 454 kts 359°
2026-04-23 19:15 38.96313 -0.01054 33063 ft 453 kts 359°
2026-04-23 19:15 38.99469 -0.01034 33322 ft 455 kts 359°
2026-04-23 19:15 39.02636 -0.01014 33613 ft 455 kts 359°
2026-04-23 19:15 39.05800 -0.00993 33997 ft 454 kts 359°
2026-04-23 19:16 39.08954 -0.00972 34361 ft 452 kts 359°
2026-04-23 19:16 39.12098 -0.00952 34653 ft 452 kts 358°
2026-04-23 19:16 39.15242 -0.00931 34949 ft 451 kts 358°
2026-04-23 19:17 39.21504 -0.00890 35568 ft 449 kts 358°
2026-04-23 19:17 39.24629 -0.00869 35825 ft 449 kts 358°
2026-04-23 19:17 39.27751 -0.00849 36098 ft 449 kts 358°
2026-04-23 19:17 39.30888 -0.00829 36111 ft 454 kts 358°
2026-04-23 19:18 39.37184 -0.00183 36116 ft 455 kts 12°
2026-04-23 19:18 39.43186 0.02043 36115 ft 443 kts 14°
2026-04-23 19:19 39.52012 0.05429 36134 ft 441 kts 14°
2026-04-23 19:20 39.60857 0.08724 36137 ft 441 kts 14°
2026-04-23 19:20 39.66758 0.10914 36131 ft 441 kts 13°
2026-04-23 19:21 39.75614 0.14209 36137 ft 441 kts 14°
2026-04-23 19:22 39.81513 0.16410 36143 ft 441 kts 14°
2026-04-23 19:22 39.90368 0.19723 36145 ft 441 kts 14°
2026-04-23 19:23 39.96270 0.21934 36146 ft 441 kts 14°
2026-04-23 19:24 40.05116 0.25256 36157 ft 441 kts 13°
2026-04-23 19:24 40.13963 0.28579 36156 ft 441 kts 13°
2026-04-23 19:25 40.25753 0.33026 36164 ft 441 kts 13°
2026-04-23 19:26 40.34585 0.36368 36153 ft 440 kts 13°
2026-04-23 19:27 40.49259 0.41959 36176 ft 438 kts 13°
2026-04-23 19:28 40.60953 0.46432 36166 ft 437 kts 13°
2026-04-23 19:29 40.69695 0.49787 36156 ft 436 kts 13°
2026-04-23 19:30 40.78454 0.53156 36174 ft 443 kts 13°
2026-04-23 19:30 40.84446 0.55465 36174 ft 454 kts 13°
2026-04-23 19:31 40.87489 0.56640 36176 ft 458 kts 13°
2026-04-23 19:31 40.93655 0.59026 36163 ft 462 kts 13°
2026-04-23 19:32 40.99827 0.61421 36154 ft 462 kts 13°
2026-04-23 19:32 41.05986 0.63814 36155 ft 461 kts 13°
2026-04-23 19:33 41.12136 0.66206 36159 ft 460 kts 13°
2026-04-23 19:33 41.21341 0.69789 36157 ft 459 kts 13°
2026-04-23 19:34 41.27462 0.72175 36154 ft 458 kts 13°
2026-04-23 19:35 41.36642 0.75763 36159 ft 458 kts 13°
2026-04-23 19:35 41.42747 0.78157 36163 ft 457 kts 13°
2026-04-23 19:36 41.48832 0.80547 36152 ft 455 kts 13°
2026-04-23 19:36 41.54900 0.82934 36148 ft 454 kts 13°
2026-04-23 19:37 41.60952 0.85320 36150 ft 453 kts 13°
2026-04-23 19:37 41.66950 0.87689 36146 ft 452 kts 13°
2026-04-23 19:38 41.72002 0.89689 36147 ft 452 kts 13°
2026-04-23 19:38 41.78998 0.92463 36171 ft 451 kts 13°
2026-04-23 19:39 41.85011 0.94852 36134 ft 451 kts 13°
2026-04-23 19:39 41.90050 0.96858 36125 ft 450 kts 13°
2026-04-23 19:40 41.96057 0.99254 36115 ft 450 kts 13°
2026-04-23 19:40 42.02023 1.01638 36104 ft 450 kts 13°
2026-04-23 19:41 42.08025 1.04041 36110 ft 450 kts 13°
2026-04-23 19:41 42.14071 1.06143 36122 ft 446 kts
2026-04-23 19:42 42.20211 1.06119 36196 ft 441 kts 352°
2026-04-23 19:42 42.26318 1.05343 36176 ft 441 kts 352°
2026-04-23 19:43 42.32440 1.04619 36162 ft 441 kts 352°
2026-04-23 19:43 42.38558 1.03944 36176 ft 441 kts 352°
2026-04-23 19:44 42.44666 1.03288 36181 ft 440 kts 352°
2026-04-23 19:44 42.50804 1.02606 36161 ft 438 kts 352°
2026-04-23 19:45 42.56884 1.01947 36156 ft 439 kts 353°
2026-04-23 19:45 42.62963 1.01288 36161 ft 437 kts 352°
2026-04-23 19:46 42.69038 1.00628 36145 ft 438 kts 352°
2026-04-23 19:46 42.75121 0.99960 36132 ft 439 kts 352°
2026-04-23 19:47 42.81229 0.99293 36114 ft 441 kts 352°
2026-04-23 19:47 42.87308 0.98625 36096 ft 441 kts 352°
2026-04-23 19:48 42.93420 0.97956 36099 ft 440 kts 352°
2026-04-23 19:48 42.99522 0.97285 36104 ft 440 kts 352°
2026-04-23 19:49 43.05614 0.96612 36100 ft 439 kts 352°
2026-04-23 19:49 43.11702 0.95939 36089 ft 438 kts 353°
2026-04-23 19:50 43.17818 0.95262 36088 ft 438 kts 352°
2026-04-23 19:50 43.23850 0.94592 36094 ft 438 kts 352°
2026-04-23 19:51 43.29919 0.93917 36094 ft 438 kts 352°
2026-04-23 19:51 43.35992 0.93241 36099 ft 438 kts 352°
2026-04-23 19:52 43.42099 0.92559 36092 ft 437 kts 352°
2026-04-23 19:52 43.48169 0.91881 36110 ft 438 kts 353°
2026-04-23 19:53 43.54242 0.91200 36103 ft 438 kts 353°
2026-04-23 19:53 43.60319 0.90517 36105 ft 438 kts 353°
2026-04-23 19:54 43.66400 0.89833 36107 ft 439 kts 353°
2026-04-23 19:54 43.72487 0.89147 36100 ft 439 kts 353°
2026-04-23 19:55 43.78575 0.88459 36105 ft 439 kts 353°
2026-04-23 19:55 43.84659 0.87770 36114 ft 439 kts 353°
2026-04-23 19:56 43.90608 0.86177 36112 ft 434 kts 338°
2026-04-23 19:56 43.96095 0.82732 36105 ft 433 kts 333°
2026-04-23 19:57 44.01538 0.79133 36104 ft 433 kts 333°
2026-04-23 19:57 44.06992 0.75568 36100 ft 434 kts 333°
2026-04-23 19:58 44.12464 0.72015 36105 ft 434 kts 333°
2026-04-23 19:58 44.17936 0.68464 36103 ft 434 kts 333°
2026-04-23 19:59 44.23414 0.64900 36110 ft 435 kts 333°
2026-04-23 19:59 44.28895 0.61326 36100 ft 435 kts 333°
2026-04-23 20:00 44.34375 0.57744 36098 ft 435 kts 333°
2026-04-23 20:00 44.39856 0.54155 36097 ft 435 kts 333°
2026-04-23 20:01 44.45334 0.50559 36101 ft 435 kts 333°
2026-04-23 20:01 44.50807 0.46934 36097 ft 435 kts 333°
2026-04-23 20:02 44.56281 0.43295 36091 ft 435 kts 333°
2026-04-23 20:02 44.61749 0.39653 36102 ft 435 kts 333°
2026-04-23 20:03 44.67218 0.36005 36090 ft 435 kts 333°
2026-04-23 20:03 44.72691 0.32347 36097 ft 436 kts 333°
2026-04-23 20:04 44.78165 0.28680 36100 ft 436 kts 333°
2026-04-23 20:04 44.83639 0.25006 36095 ft 436 kts 333°
2026-04-23 20:05 44.89119 0.21320 36095 ft 436 kts 333°
2026-04-23 20:05 44.94594 0.17629 36089 ft 436 kts 333°
2026-04-23 20:06 45.00072 0.13928 36093 ft 436 kts 333°
2026-04-23 20:06 45.05550 0.10221 36087 ft 437 kts 333°
2026-04-23 20:07 45.11028 0.06509 36090 ft 437 kts 333°
2026-04-23 20:07 45.16508 0.02788 36088 ft 437 kts 333°
2026-04-23 20:08 45.21985 -0.00940 36092 ft 437 kts 333°
2026-04-23 20:08 45.27464 -0.04678 36082 ft 437 kts 333°
2026-04-23 20:09 45.32943 -0.08424 36088 ft 437 kts 333°
2026-04-23 20:09 45.38426 -0.12180 36091 ft 438 kts 333°
2026-04-23 20:10 45.42987 -0.15311 36093 ft 438 kts 333°
2026-04-23 20:10 45.49401 -0.19725 36098 ft 438 kts 333°
2026-04-23 20:11 45.54889 -0.23510 36100 ft 438 kts 332°
2026-04-23 20:11 45.60377 -0.27303 36110 ft 438 kts 333°
2026-04-23 20:12 45.65803 -0.31144 36097 ft 438 kts 328°
2026-04-23 20:12 45.70680 -0.36296 36092 ft 436 kts 320°
2026-04-23 20:13 45.75405 -0.41732 36085 ft 436 kts 320°
2026-04-23 20:13 45.80147 -0.47148 36089 ft 436 kts 321°
2026-04-23 20:14 45.84900 -0.52545 36083 ft 436 kts 321°
2026-04-23 20:14 45.89653 -0.57942 36088 ft 436 kts 321°
2026-04-23 20:15 45.94407 -0.63352 36093 ft 436 kts 321°
2026-04-23 20:15 45.99156 -0.68769 36097 ft 436 kts 321°
2026-04-23 20:16 46.03907 -0.74201 36089 ft 436 kts 321°
2026-04-23 20:16 46.08648 -0.79635 36086 ft 436 kts 320°
2026-04-23 20:17 46.13392 -0.85085 36088 ft 436 kts 320°
2026-04-23 20:17 46.18133 -0.90544 36101 ft 436 kts 320°
2026-04-23 20:18 46.22881 -0.96020 36101 ft 437 kts 320°
2026-04-23 20:18 46.27631 -1.01504 36107 ft 437 kts 320°
2026-04-23 20:19 46.32385 -1.07003 36109 ft 438 kts 320°
2026-04-23 20:19 46.37137 -1.12515 36114 ft 438 kts 320°
2026-04-23 20:20 46.41116 -1.17140 36117 ft 438 kts 320°
2026-04-23 20:20 46.45865 -1.22672 36114 ft 438 kts 320°
2026-04-23 20:21 46.50615 -1.28219 36127 ft 438 kts 320°
2026-04-23 20:21 46.55365 -1.33777 36128 ft 439 kts 320°
2026-04-23 20:22 46.60186 -1.39239 36123 ft 440 kts 326°
2026-04-23 20:22 46.65653 -1.43284 36128 ft 442 kts 333°
2026-04-23 20:23 46.71211 -1.47107 36129 ft 442 kts 333°
2026-04-23 20:23 46.76743 -1.51001 36134 ft 442 kts 333°
2026-04-23 20:24 46.82271 -1.54931 36133 ft 442 kts 333°
2026-04-23 20:24 46.87998 -1.58185 36137 ft 444 kts 345°
2026-04-23 20:25 46.94154 -1.59188 36138 ft 447 kts 354°
2026-04-23 20:25 47.00357 -1.59711 36133 ft 447 kts 354°
2026-04-23 20:26 47.06560 -1.60309 36132 ft 446 kts 354°
2026-04-23 20:26 47.12753 -1.60952 36130 ft 446 kts 354°
2026-04-23 20:27 47.18946 -1.61637 36139 ft 446 kts 353°
2026-04-23 20:27 47.25121 -1.62491 36130 ft 446 kts 353°
2026-04-23 20:28 47.31296 -1.63343 36136 ft 445 kts 353°
2026-04-23 20:28 47.37465 -1.64183 36148 ft 445 kts 353°
2026-04-23 20:29 47.43631 -1.65060 36144 ft 445 kts 352°
2026-04-23 20:29 47.49798 -1.65947 36154 ft 445 kts 353°
2026-04-23 20:30 47.55961 -1.66832 36161 ft 445 kts 353°
2026-04-23 20:30 47.65214 -1.68159 36159 ft 445 kts 353°
2026-04-23 20:31 47.71383 -1.69047 36173 ft 446 kts 353°
2026-04-23 20:31 47.77568 -1.69939 36170 ft 447 kts 353°
2026-04-23 20:32 47.83758 -1.70834 36183 ft 448 kts 353°
2026-04-23 20:32 47.89963 -1.71734 36181 ft 448 kts 353°
2026-04-23 20:33 47.96168 -1.72635 36185 ft 448 kts 353°
2026-04-23 20:33 48.02377 -1.73539 36185 ft 448 kts 353°
2026-04-23 20:34 48.08596 -1.74355 36182 ft 449 kts 356°
2026-04-23 20:34 48.14845 -1.74483 36186 ft 449 kts 358°
2026-04-23 20:35 48.21100 -1.74435 36186 ft 450 kts 358°
2026-04-23 20:35 48.27359 -1.74446 36189 ft 449 kts 358°
2026-04-23 20:36 48.33609 -1.74508 36192 ft 449 kts 358°
2026-04-23 20:36 48.39853 -1.74584 36198 ft 445 kts 358°
2026-04-23 20:37 48.42899 -1.74620 36192 ft 430 kts 358°
2026-04-23 20:37 48.45841 -1.74653 36183 ft 417 kts 358°
2026-04-23 20:37 48.51540 -1.74721 36185 ft 398 kts 358°
2026-04-23 20:38 48.54261 -1.74752 36189 ft 385 kts 358°
2026-04-23 20:38 48.56898 -1.74783 36194 ft 373 kts 357°
2026-04-23 20:38 48.59447 -1.74813 36190 ft 360 kts 357°
2026-04-23 20:38 48.61932 -1.74844 36212 ft 357 kts 357°
2026-04-23 20:39 48.66998 -1.74911 36238 ft 372 kts 358°
2026-04-23 20:39 48.72253 -1.74977 36232 ft 381 kts 357°
2026-04-23 20:40 48.77517 -1.75038 36212 ft 373 kts 358°
2026-04-23 20:40 48.82669 -1.75098 36234 ft 370 kts 357°
2026-04-23 20:41 48.87826 -1.75162 36240 ft 371 kts 357°
2026-04-23 20:41 48.92997 -1.75180 36254 ft 373 kts 359°
2026-04-23 20:42 48.98193 -1.74982 36249 ft 374 kts 359°
2026-04-23 20:42 49.03401 -1.74755 36243 ft 374 kts 359°
2026-04-23 20:43 49.08606 -1.74545 36255 ft 374 kts 359°
2026-04-23 20:43 49.13798 -1.74346 36241 ft 372 kts 359°
2026-04-23 20:44 49.18961 -1.74150 36246 ft 370 kts 359°
2026-04-23 20:44 49.24093 -1.73956 36247 ft 368 kts 359°
2026-04-23 20:45 49.29200 -1.73763 36265 ft 366 kts 359°
2026-04-23 20:45 49.34249 -1.73571 36138 ft 364 kts 359°
2026-04-23 20:46 49.36839 -1.73474 35336 ft 372 kts 359°
2026-04-23 20:46 49.39473 -1.73377 34092 ft 387 kts 359°
2026-04-23 20:46 49.42231 -1.73276 32500 ft 406 kts 359°
2026-04-23 20:46 49.45090 -1.73168 31346 ft 414 kts 359°
2026-04-23 20:47 49.47972 -1.73055 30135 ft 418 kts 359°
2026-04-23 20:47 49.50907 -1.72940 28622 ft 425 kts 359°
2026-04-23 20:47 49.53869 -1.72825 27442 ft 425 kts 359°
2026-04-23 20:47 49.56802 -1.72711 26480 ft 418 kts 360°
2026-04-23 20:48 49.59685 -1.72668 25472 ft 412 kts 356°
2026-04-23 20:48 49.62526 -1.73221 24226 ft 413 kts 348°
2026-04-23 20:48 49.65350 -1.74085 22868 ft 414 kts 348°
2026-04-23 20:48 49.68135 -1.74967 21622 ft 412 kts 348°
2026-04-23 20:49 49.70952 -1.75850 20586 ft 405 kts 349°
2026-04-23 20:49 49.73712 -1.76697 19429 ft 404 kts 351°
2026-04-23 20:49 49.76440 -1.77517 18258 ft 406 kts 351°
2026-04-23 20:49 49.79216 -1.78344 17036 ft 406 kts 353°
2026-04-23 20:50 49.81993 -1.79162 15944 ft 404 kts 352°
2026-04-23 20:50 49.84730 -1.79972 14948 ft 399 kts 352°
2026-04-23 20:50 49.87437 -1.80771 14005 ft 396 kts 352°
2026-04-23 20:50 49.90111 -1.81563 13571 ft 382 kts 352°
2026-04-23 20:51 49.92702 -1.82332 13435 ft 375 kts 353°
2026-04-23 20:51 49.95214 -1.83079 13317 ft 360 kts 353°
2026-04-23 20:51 49.97653 -1.83806 13292 ft 344 kts 353°
2026-04-23 20:51 49.99958 -1.84437 13283 ft 328 kts 358°
2026-04-23 20:52 50.02136 -1.84396 13307 ft 311 kts
2026-04-23 20:52 50.04309 -1.84035 13307 ft 310 kts
2026-04-23 20:52 50.06444 -1.83670 13271 ft 307 kts
2026-04-23 20:52 50.08565 -1.83346 13057 ft 305 kts 10°
2026-04-23 20:53 50.10670 -1.83046 12734 ft 304 kts 10°
2026-04-23 20:53 50.12779 -1.82754 12345 ft 305 kts
2026-04-23 20:53 50.14869 -1.82346 12022 ft 301 kts 18°
2026-04-23 20:53 50.16889 -1.81518 11641 ft 300 kts 20°
2026-04-23 20:54 50.18875 -1.80573 11362 ft 296 kts 21°
2026-04-23 20:54 50.20827 -1.79638 11140 ft 291 kts 20°
2026-04-23 20:54 50.22741 -1.78732 10710 ft 286 kts 21°
2026-04-23 20:54 50.24652 -1.77842 10158 ft 287 kts 20°
2026-04-23 20:55 50.26562 -1.76964 9628 ft 285 kts 20°
2026-04-23 20:55 50.28455 -1.76105 9133 ft 282 kts 20°
2026-04-23 20:55 50.30353 -1.75334 8591 ft 282 kts 16°
2026-04-23 20:55 50.32272 -1.74687 8096 ft 281 kts 17°
2026-04-23 20:56 50.34186 -1.74092 7607 ft 280 kts 17°
2026-04-23 20:56 50.36083 -1.73486 7399 ft 281 kts 15°
2026-04-23 20:56 50.37382 -1.73056 7366 ft 281 kts 17°
2026-04-23 20:56 50.39944 -1.72239 7331 ft 280 kts 17°
2026-04-23 20:57 50.41846 -1.71640 7322 ft 278 kts 15°
2026-04-23 20:57 50.43120 -1.71219 7314 ft 276 kts 16°
2026-04-23 20:57 50.44997 -1.70592 7319 ft 276 kts 17°
2026-04-23 20:57 50.46879 -1.69962 7323 ft 276 kts 16°
2026-04-23 20:58 50.48778 -1.69325 7322 ft 276 kts 16°
2026-04-23 20:58 50.50640 -1.68698 7282 ft 275 kts 17°
2026-04-23 20:58 50.52505 -1.68076 6999 ft 270 kts 16°
2026-04-23 20:58 50.54348 -1.67460 6436 ft 272 kts 16°
2026-04-23 20:59 50.56199 -1.66836 5903 ft 272 kts 17°
2026-04-23 20:59 50.58049 -1.66221 5419 ft 271 kts 16°
2026-04-23 20:59 50.59902 -1.65697 4917 ft 273 kts
2026-04-23 20:59 50.61782 -1.66246 4452 ft 280 kts 338°
2026-04-23 21:00 50.63348 -1.68131 4100 ft 285 kts 314°
2026-04-23 21:00 50.64640 -1.70546 4067 ft 289 kts 311°
2026-04-23 21:00 50.65897 -1.72993 4029 ft 286 kts 310°
2026-04-23 21:00 50.67138 -1.75428 4018 ft 284 kts 310°
2026-04-23 21:01 50.68375 -1.77866 4020 ft 285 kts 310°
2026-04-23 21:01 50.69628 -1.80340 4025 ft 285 kts 310°
2026-04-23 21:01 50.70860 -1.82775 4027 ft 285 kts 310°
2026-04-23 21:01 50.72095 -1.85218 4030 ft 285 kts 310°
2026-04-23 21:02 50.73293 -1.87700 4016 ft 286 kts 302°
2026-04-23 21:02 50.73912 -1.90716 4014 ft 287 kts 272°
2026-04-23 21:02 50.73715 -1.93965 4019 ft 276 kts 257°
2026-04-23 21:02 50.73360 -1.96802 3999 ft 265 kts 256°
2026-04-23 21:03 50.72997 -1.99571 4006 ft 250 kts 255°
2026-04-23 21:03 50.72661 -2.02171 4014 ft 232 kts 255°
2026-04-23 21:03 50.72356 -2.04565 3999 ft 215 kts 255°
2026-04-23 21:03 50.72333 -2.06889 3990 ft 214 kts 286°
2026-04-23 21:04 50.73122 -2.08814 4011 ft 210 kts 326°
2026-04-23 21:04 50.74437 -2.09521 3953 ft 197 kts
2026-04-23 21:04 50.75665 -2.08703 3231 ft 194 kts 54°
2026-04-23 21:04 50.76059 -2.06824 2781 ft 178 kts 100°
2026-04-23 21:05 50.75582 -2.05087 2543 ft 164 kts 111°
2026-04-23 21:05 50.75425 -2.03378 2370 ft 148 kts 96°
2026-04-23 21:05 50.75293 -2.01709 2187 ft 145 kts 95°
2026-04-23 21:05 50.75404 -2.00191 2017 ft 149 kts 82°
2026-04-23 21:06 50.75644 -1.98548 1798 ft 152 kts 79°
2026-04-23 21:06 50.75910 -1.96903 1584 ft 142 kts 78°
2026-04-23 21:06 50.76150 -1.95449 1431 ft 136 kts 78°
2026-04-23 21:06 50.76386 -1.94018 1287 ft 129 kts 78°
2026-04-23 21:07 50.76724 -1.91952 992 ft 111 kts 76°
2026-04-23 21:07 50.76939 -1.90678 782 ft 130 kts 77°
2026-04-23 21:07 50.77217 -1.88992 589 ft 135 kts 75°
2026-04-23 21:08 50.77446 -1.87703 439 ft 132 kts 76°
2026-04-23 21:08 50.77607 -1.86673 299 ft 131 kts 75°
2026-04-23 21:08 50.77910 -1.84856 56 ft 126 kts 74°
2026-04-23 21:08 50.78115 -1.83624 42 ft 79 kts 75°
2026-04-23 21:09 50.78190 -1.83170 46 ft 35 kts 75°
2026-04-23 21:09 50.78202 -1.83102 43 ft 0 kts 75°
2026-04-23 21:09 50.78114 -1.83121 44 ft 14 kts 236°
2026-04-23 21:10 50.78052 -1.83270 44 ft 16 kts 242°
2026-04-23 21:10 50.78001 -1.83424 45 ft 17 kts 239°
2026-04-23 21:10 50.77918 -1.83490 45 ft 0 kts 169°
2026-04-23 21:10 50.77914 -1.83486 45 ft 0 kts 153°
2026-04-23 21:11 50.77912 -1.83481 43 ft 3 kts 131°
2026-04-23 21:11 50.77905 -1.83441 45 ft 8 kts 94°
2026-04-23 21:11 50.77907 -1.83368 45 ft 1 kts 87°
2026-04-23 21:11 50.77907 -1.83367 45 ft 0 kts 87°